Location: Hradec Kralove
(50.2170°N, 15.8330°E)
Time: 09:35:17
(UTC+01:00)

X-37B - Pass Details

Date: 13 December 2022
Orbit: 277 x 277 km, 45.0° (Epoch: 01 November)

Event Time Altitude Azimuth Distance (km) Brightness Sun altitude
Rises 17:00:34 0° 243° (WSW) 1,912 6.5 -10.0°
Reaches altitude 10° 17:02:41 10° 227° (SW) 1,100 4.2 -10.3°
Maximum altitude 17:04:41 22° 173° (S) 678 2.0 -10.6°
Enters shadow 17:06:37 10° 119° (ESE) 1,083 2.5 -10.9°
